sat.trackr.live / text

‹ back to catalog

STARLINK-30247

NORAD 57644 · 2023-122N

PAYLOAD ACTIVE UNKNOWN

§ Identity

Operator
Country
US
Launch date
2023-08-17
Launch site
AFETR
Launch vehicle
Mass (kg)
RCS (m²)

Purposes: comms

External: N2YO · Heavens-Above · Gunter

§ Orbital elements

Epoch: 2026-05-25T00:31:36.023808Z

Period
94.27 min
Inclination
43.0046°
Eccentricity
0.0001407
Mean motion
15.27577006 rev/d
Perigee alt
482.1 km
Apogee alt
484.0 km
Semi-major
6,861.2 km
B*
1.4436e-4
RAAN
21.1951°
Arg perigee
272.3301°
Mean anomaly
87.7390°
Rev number
15,388

§ Raw data

STARLINK-302471 57644U 23122N   26145.02194472  .00003712  00000+0  14436-3 0  99962 57644  43.0046  21.1951 0001407 272.3301  87.7390 15.27577006153883

JSON: /api/v1/satellites/57644 · /tle

For live sub-satellite position, see the globe view (requires WebGL).

§ Visibility from observer

Set your observer location to see the next 7 days of passes ≥ 10°. The values pass through the URL so the page stays shareable.

No JS? Fill the form by hand. The geolocation button needs JavaScript.